EW6434 Weather Reports


time (UTC)temp
C
wind
direction
speed
KPH
gust
KPH
rain 1hr
cm
rain 24hr
cm
rain mn
cm
humidity
%
barometer
mb
20260509024534 10 263 0.0 3.2 0.00 0.00 0.00 35 1011.3
20260509023022 11 217 0.0 1.6 0.00 0.00 0.00 34 1011.1
20260509021522 12 262 0.0 4.8 0.00 0.00 0.00 31 1010.8
20260509020020 13 221 0.0 4.8 0.00 0.00 0.00 27 1010.6
20260509014520 13 273 1.6 6.4 0.00 0.00 0.00 27 1010.3
20260509013026 14 230 0.0 3.2 0.00 0.00 0.00 26 1010.2
20260509011519 15 258 0.0 1.6 0.00 0.00 0.00 24 1010.0
20260509010023 16 234 0.0 6.4 0.00 0.00 0.00 22 1009.9
20260509004519 17 154 0.0 4.8 0.00 0.00 0.00 24 1009.8
20260509003016 17 179 1.6 6.4 0.00 0.00 0.00 23 1009.9
20260509001516 17 245 1.6 6.4 0.00 0.00 0.00 26 1009.8
20260509000016 17 255 0.0 6.4 0.00 0.00 0.00 25 1009.9
20260508234515 16 240 1.6 9.7 0.00 0.00 0.00 27 1010.0
20260508233014 16 203 0.0 8.0 0.00 0.00 0.00 27 1010.0
20260508231513 17 249 3.2 9.7 0.00 0.00 0.00 25 1010.1
20260508230012 18 140 3.2 11.3 0.00 0.00 0.00 23 1010.1
20260508224510 16 153 0.0 6.4 0.00 0.00 0.00 27 1010.2
20260508223021 16 229 1.6 4.8 0.00 0.00 0.00 27 1010.3
20260508221509 16 216 0.0 8.0 0.00 0.00 0.00 26 1010.5
20260508220020 15 217 1.6 9.7 0.00 0.00 0.00 27 1010.6
20260508214506 16 75 0.0 4.8 0.00 0.00 0.00 26 1010.7
20260508213118 16 264 0.0 4.8 0.00 0.00 0.00 26 1010.6
20260508211502 17 184 1.6 24.1 0.00 0.00 0.00 24 1010.9
20260508210101 17 125 1.6 14.5 0.00 0.00 0.00 23 1011.0
20260508204622 16 111 1.6 17.7 0.00 0.00 0.00 26 1011.1
20260508203102 17 243 1.6 8.0 0.00 0.00 0.00 24 1011.2
20260508201610 17 208 1.6 17.7 0.00 0.00 0.00 22 1011.2
20260508200126 17 217 1.6 11.3 0.00 0.00 0.00 25 1011.3
20260508194556 17 273 8.0 29.0 0.00 0.00 0.00 24 1011.3
20260508193057 17 266 3.2 11.3 0.00 0.00 0.00 23 1011.4
20260508191552 17 78 6.4 14.5 0.00 0.00 0.00 22 1011.6
20260508190057 16 189 3.2 14.5 0.00 0.00 0.00 25 1011.6
20260508184548 17 150 3.2 11.3 0.00 0.00 0.00 25 1011.6
20260508183049 16 90 3.2 8.0 0.00 0.00 0.00 25 1012.0
20260508181606 16 202 4.8 0.0 0.00 0.00 0.00 26 1012.0
20260508180052 16 233 3.2 17.7 0.00 0.00 0.00 26 1012.3
20260508174540 15 41 1.6 9.7 0.00 0.00 0.00 28 1012.4
20260508173040 15 65 4.8 16.1 0.00 0.00 0.00 30 1012.2
20260508171537 15 155 1.6 12.9 0.00 0.00 0.00 28 1012.6
20260508170031 14 238 1.6 12.9 0.00 0.00 0.00 29 1012.9
20260508164535 14 191 3.2 16.1 0.00 0.00 0.00 28 1013.0
20260508163022 14 274 1.6 12.9 0.00 0.00 0.00 28 1013.0
20260508161519 13 175 1.6 17.7 0.00 0.00 0.00 30 1013.4
20260508160022 13 207 3.2 14.5 0.00 0.00 0.00 31 1013.7
20260508154506 12 139 3.2 19.3 0.00 0.00 0.00 33 1014.1
20260508070031 0 75 0.0 0.0 0.00 0.00 0.00 70 1016.7
20260508064538 1 75 0.0 0.0 0.00 0.00 0.00 70 1016.7
20260508063030 0 75 0.0 0.0 0.00 0.00 0.00 69 1016.8
20260508061529 1 75 0.0 3.2 0.00 0.00 0.00 69 1016.8
20260508054524 1 252 0.0 0.0 0.00 0.00 0.00 66 1016.8
20260508053028 1 252 0.0 0.0 0.00 0.00 0.00 65 1016.9
20260508051524 1 252 0.0 0.0 0.00 0.00 0.00 66 1016.9
20260508050026 2 255 0.0 0.0 0.00 0.00 0.00 64 1016.8
20260508044523 2 255 0.0 0.0 0.00 0.00 0.00 63 1016.9
20260508043022 3 255 0.0 0.0 0.00 0.00 0.00 60 1017.0
20260508041521 3 255 0.0 0.0 0.00 0.00 0.00 59 1017.0
20260508040024 4 255 0.0 1.6 0.00 0.00 0.00 56 1017.0
20260508034523 5 276 0.0 3.2 0.00 0.00 0.00 56 1017.0
20260508033023 5 250 0.0 0.0 0.00 0.00 0.00 53 1017.0
20260508031526 6 34 0.0 0.0 0.00 0.00 0.00 49 1016.8
20260508030019 6 266 0.0 0.0 0.00 0.00 0.00 46 1016.8